DW6723 Weather Reports


Display with metric or nautical units.
time (UTC)temp
F
wind
direction
speed
MPH
gust
MPH
rain 1hr
in
rain 24hr
in
rain mn
in
humidity
%
barometer
mb
20260904190042 76 123 7.0 17.0 0.00 0.00 0.00 72 1007.7
20260904184544 81 325 6.0 14.0 0.00 0.00 0.00 54 1007.6
20260904183040 81 351 7.0 14.0 0.00 0.00 0.00 54 1007.6
20260904181539 80 285 6.0 14.0 0.00 0.00 0.00 56 1007.6
20260904180038 80 309 4.0 15.0 0.00 0.00 0.00 59 1007.8
20260904174544 80 317 9.0 13.0 0.00 0.00 0.00 58 1007.7
20260904173024 80 323 4.0 10.0 0.00 0.00 0.00 58 1007.7
20260904171522 78 355 8.0 11.0 0.00 0.00 0.00 61 1008.0
20260904170021 79 355 6.0 8.0 0.00 0.00 0.00 62 1008.1
20260904164521 79 310 6.0 11.0 0.00 0.00 0.00 62 1008.1
20260904163028 79 284 8.0 13.0 0.00 0.00 0.00 62 1008.1
20260904161517 79 297 8.0 14.0 0.00 0.00 0.00 62 1008.3
20260904160014 78 349 8.0 13.0 0.00 0.00 0.00 67 1008.4
20260904154511 78 340 7.0 12.0 0.00 0.00 0.00 68 1008.5
20260904153059 77 340 4.0 11.0 0.00 0.00 0.00 72 1008.7
20260904151603 75 340 8.0 11.0 0.00 0.00 0.00 74 1008.8
20260904150106 75 345 8.0 13.0 0.00 0.00 0.00 77 1009.0
20260904144547 74 326 4.0 11.0 0.00 0.00 0.00 79 1009.0
20260904143045 73 355 9.0 12.0 0.00 0.00 0.00 81 1009.1
20260904141545 72 351 5.0 8.0 0.00 0.00 0.00 83 1009.2
20260904140041 71 334 4.0 7.0 0.00 0.00 0.00 87 1009.3
20260904134548 70 350 2.0 6.0 0.00 0.00 0.00 88 1009.4
20260904133041 69 342 2.0 6.0 0.00 0.00 0.00 91 1009.5
20260904131525 68 328 4.0 8.0 0.00 0.00 0.00 92 1009.6
20260904130033 67 323 2.0 5.0 0.00 0.01 0.00 95 1009.7
20260904124525 66 267 2.0 5.0 0.00 0.01 0.00 95 1009.6
20260904123025 66 321 3.0 5.0 0.00 0.01 0.00 96 1009.6
20260904121524 65 302 2.0 5.0 0.00 0.01 0.00 96 1009.7
20260904120023 65 274 1.0 5.0 0.00 0.05 0.00 97 1009.7
20260904114531 65 249 2.0 5.0 0.00 0.05 0.00 97 1009.7
20260904113022 65 281 0.0 3.0 0.00 0.05 0.00 97 1009.7
20260904111522 64 254 1.0 3.0 0.00 0.05 0.00 97 1009.4
20260904110011 64 315 1.0 3.0 0.00 0.15 0.00 97 1009.4
20260904104510 64 316 1.0 4.0 0.00 0.15 0.00 97 1009.4
20260904103009 64 326 2.0 4.0 0.00 0.15 0.00 97 1009.4
20260904101510 64 267 0.0 2.0 0.00 0.15 0.00 97 1009.3
20260904100010 64 267 0.0 2.0 0.00 0.19 0.00 97 1009.3
20260904094518 64 267 0.0 4.0 0.00 0.19 0.00 97 1009.3
20260904093008 64 216 0.0 2.0 0.00 0.19 0.00 97 1009.4
20260904091557 64 233 1.0 2.0 0.00 0.19 0.00 97 1009.3
20260904090056 64 273 0.0 2.0 0.00 0.19 0.00 97 1009.2
20260904084558 64 220 1.0 3.0 0.00 0.19 0.00 97 1009.4
20260904083057 64 227 0.0 2.0 0.00 0.19 0.00 97 1009.4
20260904081554 64 225 1.0 3.0 0.00 0.19 0.00 97 1009.6
20260904080054 64 200 1.0 2.0 0.00 0.19 0.00 97 1009.5
20260904074556 64 200 0.0 2.0 0.00 0.19 0.00 97 1009.4
20260904073052 64 200 0.0 2.0 0.00 0.19 0.00 97 1009.6
20260904071539 64 200 0.0 2.0 0.00 0.19 0.00 97 1009.8
20260904070042 64 200 0.0 1.0 0.00 0.19 0.00 97 1009.7
20260904064538 64 200 0.0 2.0 0.00 0.19 0.00 97 1009.8
20260904063038 64 200 0.0 2.0 0.00 0.19 0.00 96 1009.9
20260904061533 64 200 0.0 2.0 0.00 0.19 0.00 97 1010.3
20260904060032 64 200 0.0 2.0 0.00 0.19 0.00 96 1010.6
20260904054530 64 153 1.0 2.0 0.00 0.19 0.00 96 1010.6
20260904053029 64 183 1.0 3.0 0.00 0.19 0.00 96 1010.7
20260904051519 64 142 1.0 3.0 0.00 0.19 0.00 96 1010.9
20260904050016 64 153 0.0 2.0 0.00 0.19 0.00 96 1010.8
20260904044518 64 114 0.0 3.0 0.00 0.19 0.00 96 1010.8
20260904043015 64 162 1.0 5.0 0.00 0.19 0.00 96 1011.0
20260904041513 64 187 0.0 6.0 0.00 0.19 0.00 96 1011.1
20260904040015 64 150 4.0 5.0 0.00 0.19 0.00 96 1011.3
20260904034515 64 66 2.0 5.0 0.00 0.19 0.00 96 1011.5
20260904033012 64 107 3.0 6.0 0.00 0.19 0.00 96 1011.7
20260904031603 65 103 2.0 6.0 0.00 0.19 0.00 95 1011.8
20260904030101 65 30 4.0 11.0 0.00 0.19 0.00 95 1011.7
20260904024559 66 117 3.0 5.0 0.00 0.19 0.00 95 1011.6
20260904023102 65 110 2.0 3.0 0.00 0.19 0.00 95 1011.5
20260904021606 65 115 1.0 3.0 0.00 0.19 0.00 95 1011.9
20260904020101 65 73 2.0 3.0 0.00 0.19 0.00 95 1011.8
20260904014602 65 90 0.0 3.0 0.00 0.19 0.00 95 1012.0
20260904013055 65 158 0.0 2.0 0.00 0.19 0.00 95 1012.1
20260904011542 65 99 0.0 2.0 0.00 0.19 0.00 94 1012.2
20260904010045 65 99 0.0 0.0 0.00 0.19 0.00 94 1011.9
20260904004543 65 99 0.0 2.0 0.00 0.19 0.00 94 1011.8
20260904003038 65 117 1.0 2.0 0.00 0.19 0.00 94 1011.7
20260904001537 65 137 1.0 2.0 0.00 0.19 0.00 93 1011.4
20260904000036 65 89 0.0 2.0 0.00 0.19 0.00 93 1011.5
20260903234535 65 89 1.0 2.0 0.00 0.19 0.00 93 1011.2
20260903233033 66 109 2.0 3.0 0.00 0.19 0.00 92 1011.2
20260903231529 66 93 2.0 3.0 0.00 0.19 0.00 92 1011.5
20260903230023 66 103 4.0 7.0 0.00 0.19 0.00 91 1011.0
20260903224530 67 116 4.0 7.0 0.00 0.19 0.00 90 1011.3
20260903223012 67 78 4.0 6.0 0.00 0.19 0.00 90 1011.7
20260903221511 68 91 3.0 5.0 0.00 0.19 0.00 89 1011.7
20260903220008 69 90 6.0 8.0 0.00 0.19 0.00 87 1011.7
20260903214504 70 119 5.0 7.0 0.00 0.19 0.00 86 1011.5
20260903213003 71 89 2.0 4.0 0.00 0.19 0.00 84 1011.6
20260903211549 71 120 1.0 3.0 0.00 0.19 0.00 84 1011.4
20260903210120 71 151 2.0 4.0 0.00 0.19 0.00 85 1011.5
20260903204550 71 120 2.0 5.0 0.00 0.19 0.00 86 1011.5
20260903203104 71 134 2.0 4.0 0.00 0.19 0.00 85 1011.7
20260903201547 70 111 1.0 3.0 0.00 0.19 0.00 85 1011.8
20260903200050 71 99 2.0 3.0 0.00 0.19 0.19 85 1011.8
20260903194540 70 123 2.0 4.0 0.00 0.19 0.19 86 1012.0
20260903193039 70 126 3.0 5.0 0.00 0.19 0.19 86 1011.9
20260903191534 70 136 2.0 4.0 0.00 0.19 0.19 86 1012.2